#timestamp,LO_Frequency,Hit,StdDev 
1510732815.5,286046997.2,N
1510732835.4,286046999.4,N
1510732855.2,286046998.7,N
1510732875.0,286047000.9,N
1510732875.9,286047000.9,N
1510732895.7,286047000.9,N
1510732915.6,286047002.8,N
1510732935.4,286047001.2,N
1510732955.2,286046997.7,N
1510732975.1,286046993.8,N
1510732976.0,286046993.8,N
1510732995.8,286046997.7,N
1510733015.6,286046995.0,N
1510733035.5,286046997.7,N
1510733055.3,286046998.0,N
1510733075.1,286046996.9,N
1510733095.9,286046993.3,N
1510733115.7,286046997.7,N
1510733135.5,286047000.8,N
1510733155.4,286047001.2,N
1510733175.2,286046998.8,N
1510733195.0,286046994.6,N
1510733195.9,286046994.6,N
1510733215.7,286046996.4,N
1510733235.6,286046997.5,N
1510733255.4,286046995.5,N
1510733275.2,286046993.9,N
1510733295.1,286046993.0,N
1510733296.0,286046993.0,N
1510733315.8,286046989.1,Y
1510733335.6,286046992.6,P
1510733355.5,286046995.7,N
1510733375.3,286046996.3,N
1510733395.1,286046994.6,Y
1510733415.9,286046996.7,P
1510733435.7,286046996.4,P
1510733455.5,286046997.8,P
1510733475.4,286046995.6,Y
1510733495.2,286046998.7,P
1510733515.0,286046998.5,N
1510733515.9,286046998.5,N
1510733535.8,286047000.9,N
1510733555.6,286046999.9,N
1510733575.4,286046994.9,Y
1510733595.3,286046996.7,P
1510733615.1,286046999.3,N
1510733635.8,286046998.8,N
1510733655.7,286046995.8,Y
1510733675.5,286046994.4,P
1510733695.3,286046992.3,P
1510733715.2,286046992.7,N
1510733735.0,286046990.8,Y
1510733735.9,286046990.8,P
1510733755.7,286046996.7,N
1510733775.6,286046997.5,N
1510733795.4,286046992.7,N
1510733815.2,286046990.4,Y
1510733835.1,286046995.2,P
1510733836.0,286046995.2,P
1510733855.8,286046995.8,P
1510733875.7,286046995.6,Y
1510733895.5,286046997.0,P
1510733915.3,286046998.3,N
1510733935.1,286047001.4,N
1510733955.9,286047001.6,N
1510733975.7,286047004.6,N
1510733995.5,286047004.4,N
1510734015.4,286047004.3,N
1510734035.2,286047000.2,N
1510734055.0,286046994.9,N
1510734055.9,286046994.9,N
1510734075.8,286046994.5,N
1510734095.6,286046994.8,N
1510734115.4,286046991.0,N
1510734135.3,286046990.7,N
1510734155.1,286046993.9,N
1510734156.0,286046993.9,N
1510734175.8,286046996.8,N
1510734195.7,286046999.1,N
1510734215.5,286046998.7,N
1510734235.3,286047000.7,N
1510734255.1,286047001.9,N
1510734275.9,286046999.7,N
1510734295.7,286047005.3,N
1510734315.5,286047005.0,N
1510734335.4,286047010.2,N
1510734355.2,286047009.4,N
1510734375.0,286047007.5,N
1510734375.9,286047007.5,N
1510734395.8,286047006.6,N
1510734415.6,286047007.0,N
1510734435.4,286047004.7,N
1510734455.3,286047001.8,N
1510734475.1,286047000.4,N
1510734476.0,286047000.4,N
1510734495.8,286047001.2,N
1510734515.7,286046999.4,N
1510734535.5,286046997.3,N
1510734555.3,286046991.9,N
1510734575.1,286046994.4,N
1510734595.9,286046993.6,N
1510734615.7,286046995.8,N
1510734635.5,286046995.3,N
1510734655.4,286047001.1,N
1510734675.2,286047002.8,N
1510734695.0,286047002.2,N
1510734695.9,286047002.2,N
1510734715.8,286047002.8,N
1510734735.6,286047001.3,N
1510734755.4,286047005.0,N
1510734775.3,286047003.5,N
1510734795.1,286047002.5,N
1510734796.0,286047002.5,N
1510734815.8,286047001.3,N
1510734835.7,286047006.9,N
1510734855.5,286047006.2,N
1510734875.3,286047010.8,N
1510734895.2,286047013.8,Y
1510734915.9,286047012.6,P
1510734935.7,286047016.9,P
1510734955.6,286047016.1,N
1510734975.4,286047016.7,N
1510734995.2,286047013.4,N
1510735015.1,286047016.8,Y
1510735016.0,286047016.8,P
1510735035.8,286047003.1,N
1510735055.6,286047005.1,N
1510735075.5,286047004.7,N
1510735095.3,286047004.0,N
1510735115.1,286046996.5,N
1510735135.8,286046996.9,N
1510735155.7,286047000.8,N
1510735175.5,286046998.4,N
1510735195.3,286046999.6,N
1510735215.2,286047002.5,N
1510735235.9,286047004.3,N
1510735255.7,286047005.8,N
1510735275.6,286047004.8,N
1510735295.4,286047005.1,N
1510735315.2,286047006.8,N
1510735335.1,286047008.6,N
1510735336.0,286047008.6,N
1510735355.8,286047007.3,N
1510735375.6,286047007.2,N
1510735395.5,286047004.8,N
1510735415.3,286047006.6,N
1510735435.1,286047007.7,N
1510735455.8,286047007.9,N
1510735475.7,286047008.8,N
1510735495.5,286047006.9,N
1510735515.3,286047003.1,N
1510735535.2,286047005.1,N
1510735555.9,286047006.9,N
1510735575.7,286047010.4,N
1510735595.6,286047008.5,N
1510735615.4,286047010.1,N
1510735635.2,286047008.2,N
1510735655.1,286047006.8,N
1510735656.0,286047006.8,N
1510735675.8,286047003.1,N
1510735695.6,286046999.7,N
1510735715.5,286047003.2,N
1510735735.3,286047001.7,N
1510735755.1,286047003.8,N
1510735775.9,286047007.6,Y
1510735795.7,286046998.5,P
1510735815.5,286046997.9,N
1510735835.3,286046997.7,N
1510735855.2,286046994.9,N
1510735875.0,286046997.7,N
1510735875.9,286046997.7,N
1510735895.7,286046997.8,N
1510735915.6,286046995.3,N
1510735935.4,286046995.3,N
1510735955.2,286046994.9,N
1510735975.1,286046997.0,N
1510735976.0,286046997.0,N
1510735995.8,286046999.9,N
1510736015.6,286047003.0,N
1510736035.5,286047003.1,N
1510736055.3,286047004.6,N
1510736075.1,286047004.8,N
1510736095.9,286047007.1,N
1510736115.7,286047000.0,N
1510736135.5,286047001.0,N
1510736155.3,286046999.8,N
1510736175.2,286046997.0,N
1510736195.0,286046995.8,N
1510736195.9,286046995.8,N
1510736215.7,286046993.5,N
1510736235.6,286046993.3,N
1510736255.4,286046990.2,N
1510736275.2,286046992.7,N
1510736295.1,286046997.7,N
1510736296.0,286046997.7,N
1510736315.8,286047002.6,N
1510736335.6,286046998.3,N
1510736355.5,286046996.8,N
1510736375.3,286046997.2,N
1510736395.1,286046998.0,N
